Regional Weather Roundup
Issued by NWS

Home | Current Version | Previous Version | Graphics & Text | Print | Product List | Glossary On
Versions: 1 2 3 4 5 6 7 8 9 10 11 12 13 14 15 16 17 18 19 20 21 22 23 24 25 26 27 28 29 30 31 32 33 34 35 36 37 38 39 40 41 42 43 44 45 46 47 48 49 50
000
ASUS43 KDMX 231607
RWRIA

WEATHER ROUNDUP FOR IOWA
NATIONAL WEATHER SERVICE DES MOINES IA
1100 AM CDT SAT MAY 23 2015

NOTE: "FAIR" INDICATES FEW OR NO CLOUDS BELOW 12,000 FEET WITH NO
SIGNIFICANT WEATHER AND/OR OBSTRUCTIONS TO VISIBILITY.

* - THESE STATIONS ARE NOT NWS STATIONS...THUS NOT UNDER NWS
QUALITY CONTROL.  THEY ALSO DO NOT REPORT WEATHER SUCH
AS PRECIPITATION OR FOG.

IAZ001>003-012>014-020>022-031>034-043>046-231700-
   NORTHWEST IOWA

CITY           SKY/WX    TMP DP  RH WIND       PRES   REMARKS
CARROLL *      PTSUNNY   68  50  52 S15       30.21F
CHEROKEE *     CLOUDY    66  52  59 SE10      30.19F
DENISON *      CLOUDY    66  54  63 SE12      30.18F
LE MARS *      CLOUDY    63  52  67 SE7G14    30.20F
ORANGE CITY *  PTSUNNY   61  48  63 SE5       30.19F
SHELDON *      CLOUDY    64  48  55 SE14      30.19F
SIOUX CITY     LGT RAIN  63  51  65 SE8       30.19F
SPENCER        CLOUDY    66  50  56 SE15      30.22F
STORM LAKE *   PTSUNNY   66  50  55 SE20      30.21F
$$

IAZ055>058-069>071-079>083-090>094-231700-
   SOUTHWEST IOWA

CITY           SKY/WX    TMP DP  RH WIND       PRES   REMARKS
ATLANTIC *     CLOUDY    61  50  67 SE14G22   30.22S
AUDUBON *      MOSUNNY   64  52  63 S21       30.24R
CLARINDA *     CLOUDY    59  55  88 S8        30.23F
COUNCIL BLFS * CLOUDY    59  59 100 SE13G20   30.20F
CRESTON *      CLOUDY    61  46  59 SE15      30.23F
HARLAN  *      CLOUDY    63  57  82 S16       30.23F
LAMONI         CLOUDY    66  53  63 S14       30.24F
RED OAK *      CLOUDY    57  54  88 SE10G20   30.22S FOG
SHENANDOAH *   CLOUDY    59  55  88 SE13      30.22S
$$

IAZ047>049-059>061-072>074-084-231700-
   CENTRAL IOWA

CITY           SKY/WX    TMP DP  RH WIND       PRES   REMARKS
AMES           PTSUNNY   69  52  54 S15G22    30.24F
ANKENY *       PTSUNNY   70  54  56 SE12G20   30.24F
CHARITON *     PTSUNNY   66  50  55 S14       30.26R
DES MOINES     PTSUNNY   69  50  50 S13       30.25S
GRINNELL*      SUNNY     72  50  46 S17       30.26F
KNOXVILLE *    PTSUNNY   70  46  43 S13G21    30.24S
MARSHALLTOWN   MOSUNNY   71  46  40 S14       30.24F
PELLA *        SUNNY     72  55  56 SE12      30.27S
PERRY *        CLOUDY    68  46  45 SE18      30.23S
$$

IAZ004>006-015-016-023>025-035-036-231700-
   NORTH CENTRAL IOWA

CITY           SKY/WX    TMP DP  RH WIND       PRES   REMARKS
ALGONA *       CLOUDY    66  48  52 SE12      30.24F
CLARION *      CLOUDY    72  45  37 S14       30.24F
ESTHERVILLE    CLOUDY    63  47  55 SE16      30.23F
FORT DODGE *   CLOUDY    68  52  56 SE13G18   30.24F
MASON CITY     PTSUNNY   70  44  39 E9        30.26S
FOREST CITY *  SUNNY     68  45  42 E9        30.25F
IOWA FALLS *     N/A     70  46  43 SE14G20   30.26S
$$

IAZ007>011-017>019-026>030-037>042-050>054-066-231700-
   NORTHEAST IOWA

CITY           SKY/WX    TMP DP  RH WIND       PRES   REMARKS
CEDAR RAPIDS   MOSUNNY   72  49  44 S10       30.26S
CHARLES CITY * PTSUNNY   70  43  37 S8        30.27S
CLINTON *      SUNNY     73  50  43 S8        30.31S
DECORAH *      PTSUNNY   68  48  49 VRB5      30.26S
DUBUQUE        MOSUNNY   70  48  45 SE8       30.29F
MONTICELLO *   SUNNY     73  48  40 S3        30.27S
OELWEIN *      PTSUNNY   70  48  46 S10       30.28R
WATERLOO       MOSUNNY   70  50  49 S7        30.26R
$$

IAZ064-065-067-068-078-231700-
   EAST CENTRAL IOWA

CITY           SKY/WX    TMP DP  RH WIND       PRES   REMARKS
DAVENPORT      SUNNY     74  50  42 S12G18    30.29F
IOWA CITY      PTSUNNY   73  49  42 S12       30.29S
MT. PLEASANT * SUNNY     73  48  40 SE12      30.28S
MUSCATINE *    SUNNY     73  52  46 VRB6G12   30.29R
QUAD CITIES    SUNNY     75  47  36 S6        30.28F
$$

IAZ062-063-075>077-085>089-095>099-231700-
   SOUTHEAST IOWA

CITY           SKY/WX    TMP DP  RH WIND       PRES   REMARKS
BURLINGTON     SUNNY     73  53  49 S9        30.28F
FAIRFIELD *    SUNNY     72  48  43 S13G20    30.28S
FORT MADISON * MOSUNNY   72  54  53 S10       30.29F
KEOKUK *       SUNNY     72  54  53 S8G15     30.28S
OSKALOOSA *      N/A     72  50  46 S12       30.27S
CENTERVILLE *  SUNNY     68  68 100 SE10      30.27F
OTTUMWA        MOSUNNY   70  53  54 S14       30.27R
WASHINGTON *   SUNNY     73  48  40 S13       30.29S
$$

ABBREVIATIONS USED IN REMARKS
   TC - TEMPERATURES IN CELSIUS
  WCI - WIND CHILL INDEX
   HX - HEAT INDEX
  VSB - VISIBILITY
$$



USA.gov is the U.S. government's official web portal to all federal, state and local government web resources and services.